Probability
0 0 0 0 0 0 0 0 0 0 0 0 0 0 0 0 0 0 0 0 0 0 0 0 0 0 0 0 0 0 0 0 0 0 0 0 0 0 0 0 0 0 0 0
0 0 0 0 0 0 0 0 0 0 0 0 0 0 0 0 0 0 0 0 0 0 0 0 0 0 0 0 0 0 0 0 0 0 0 0 0 0 0 0 0 0 0 0
0 0 0 0 0 0 0 0 0 0 0 0 0 0 0 0 0 0 0 0 0 0 0 0 0 0 0 0 0 0 0 0 0 0 0 0 0 0 0 0 0 0 0 0
0 0 0 0 0 0 0 0 0 0 0 0 0 0 0 0 0 0 0 0 0 0 0 0 0 0 0 0 0 0 0 0 0 0 0 0 0 0 0 0 0 0 0 0
0 0 0 0 0 0 0 0 0 0 0 0 0 0 0 0 0 0 0 0 0 0 0 0 0 0 0 0 0 0 0 0 0 0 0 0 0 0 0 0 0 0 0 0
0 0 0 0 0 0 0 0 0 0 0 0 0 0 0 0 0 0 0 0 0 0 0 0 0 0 0 0 0 0 0 0 0 0 0 0 0 0 0 0 0 0 0 0
0 0 0 0 0 0 0 0 0 0 0 0 0 0 0 0 0 0 0 0 0 0 0 0 0 0 0 0 0 0 0 0 0 0 0 0 0 0 0 0 0 0 0 0
0 0 0 0 0 0 0 0 0 0 0 0 0 0 0 0 0 0 0 0 0 0 0 0 0 0 0 0 0 0 0 0 0 0 0 0 0 0 0 0 0 0 0 0
0 0 0 0 0 0 0 0 0 0 0 0 0 0 0 0 0 0 0 0 0 0 0 0 0 0 0 0 0 0 0 0 0 0 0 0 0 0 0 0 0 0 0 0
0 0 0 0 0 0 0 0 0 0 0 0 0 0 0 0 0 0 0 0 0 0 0 0 0 0 0 0 0 0 0 0 0 0 0 0 0 0 0 0 0 0 0 0
0 0 0 0 0 0 0 0 0 0 0 0 0 0 0 0 0 0 0 0 0 0 0 0 0 0 0 0 0 0 0 0 0 0 0 0 0 0 0 0 0 0 0 0
0 0 0 0 0 0 0 0 0 0 0 0 0 0 0 0 0 0 0 0 0 0 0 0 0 0 0 0 0 0 0 0 0 0 0 0 0 0 0 0 0 0 0 0
0 0 0 0 0 0 0 0 0 0 0 0 0 0 0 0 0 0 0 0 0 0 0 0 0 0 0 0 0 0 0 0 0 0 0 0 0 0 0 0 0 0 0 0
0 0 0 0 0 0 0 0 0 0 0 0 0 0 0 0 0 0 0 0 0 0 0 0 0 0 0 0 0 0 0 0 0 0 0 0 0 0 0 0 0 0 0 0
0 0 0 0 0 0 0 0 0 0 0 0 0 0 0 0 0 0 0 0 0 0 0 0 0 0 0 0 0 0 0 0 0 0 0 0 0 0 0 0 0 0 0 0
0 0 0 0 0 0 0 0 0 0 0 0 0 0 0 0 0 0 0 0 0 0 0 0 0 0 0 0 0 0 0 0 0 0 0 0 0 0 0 0 0 0 0 0
0 0 0 0 0 0 0 0 0 0 0 0 0 0 0 0 0 0 0 0 0 0 0 0 0 0 0 0 0 0 0 0 0 0 0 0 0 0 0 0 0 0 0 0
0 0 0 0 0 0 0 0 0 0 0 0 0 0 0 0 0 0 0 0 0 0 0 0 0 0 0 0 0 0 0 0 0 0 0 0 0 0 0 0 0 0 0 0
0 0 0 0 0 0 0 0 0 0 0 0 0 0 0 0 0 0 0 0 0 0 0 0 0 0 0 0 0 0 0 0 0 0 0 0 0 0 0 0 0 0 0 0
0 0 0 0 0 0 0 0 0 0 0 0 0 0 0 0 0 0 0 0 0 0 0 0 0 0 0 0 0 0 0 0 0 0 0 0 0 0 0 0 0 0 0 0
0 0 0 0 0 0 0 0 0 0 0 0 0 0 0 0 0 0 0 0 0 0 0 0 0 0 0 0 0 0 0 0 0 0 0 0 0 0 0 0 0 0 0 0
0 0 0 0 0 0 0 0 0 0 0 0 0 0 0 0 0 0 0 0 0 0 0 0 0 0 0 0 0 0 0 0 0 0 0 0 0 0 0 0 0 0 0 0
0 0 0 0 0 0 0 0 0 0 0 0 0 0 0 0 0 0 0 0 0 0 0 0 0 0 0 0 0 0 0 0 0 0 0 0 0 0 0 0 0 0 0 0
0 0 0 0 0 0 0 0 0 0 0 0 0 0 0 0 0 0 0 0 0 0 0 0 0 0 0 0 0 0 0 0 0 0 0 0 0 0 0 0 0 0 0 0
0 0 0 0 0 0 0 0 0 0 0 0 0 0 0 0 0 0 0 0 0 0 0 0 0 0 0 0 0 0 0 0 0 0 0 0 0 0 0 0 0 0 0 0
0 0 0 0 0 0 0 0 0 0 0 0 0 0 0 0 0 0 0 0 0 0 0 0 0 0 0 0 0 0 0 0 0 0 0 0 0 0 0 0 0 0 0 0
0 0 0 0 0 0 0 0 0 0 0 0 0 0 0 0 0 0 0 0 0 0 0 0 0 0 0 0 0 0 0 0 0 0 0 0 0 0 0 0 0 0 0 0
Wind_Speed
1 1 1 2 4 5 3 2 4 5 5 5 5 4 3 3 3 4 3 4 4 4 4 5 6 6 6 7 7 7 7 8 7 7 7 7 7 7 7 7 6 6 5 4
3 2 3 3 5 4 3 3 5 6 2 2 4 4 3 3 3 3 2 2 3 3 4 5 5 5 6 6 6 6 6 6 6 6 7 7 7 7 7 7 7 6 6 6
2 4 3 3 3 2 1 1 3 4 4 5 4 5 5 4 4 3 2 1 1 1 2 2 3 3 4 4 5 5 5 6 6 6 7 7 7 7 7 7 6 7 6 6
0 3 1 4 2 1 2 1 1 3 4 6 5 4 3 3 4 3 2 1 0 1 1 2 2 2 3 3 4 4 4 5 5 5 6 6 6 7 7 6 6 6 6 6
2 0 4 4 2 2 2 2 2 5 5 4 4 3 1 1 3 3 2 1 1 0 1 1 2 2 2 3 4 4 5 5 5 5 6 6 6 6 5 5 6 6 6 7
2 1 4 3 2 2 3 3 4 6 7 6 6 2 4 3 3 2 1 1 0 0 1 2 3 3 3 4 4 5 5 5 5 5 5 6 6 6 5 5 6 6 6 6
2 3 6 3 2 4 3 6 4 6 7 7 6 5 3 4 2 2 1 0 0 1 1 2 3 3 4 4 5 6 6 6 5 5 6 6 6 5 6 6 6 7 7 7
3 3 7 4 5 6 7 2 4 5 5 6 4 3 4 3 3 2 1 0 0 1 2 3 3 3 4 6 6 6 6 6 6 6 6 6 6 6 6 6 7 7 7 7
7 7 4 4 6 4 4 4 4 5 5 6 5 4 4 3 2 2 1 1 1 2 3 4 4 3 5 6 6 6 6 7 7 7 6 6 6 7 6 5 5 6 6 7
4 6 5 4 3 2 4 5 4 5 6 6 6 5 4 3 3 2 2 2 2 2 4 5 5 5 5 7 6 6 7 7 7 7 7 6 5 5 5 6 6 6 6 7
5 6 3 4 6 5 4 4 5 4 5 6 6 5 4 4 3 3 2 2 2 3 4 6 6 6 6 6 6 6 7 7 7 7 7 7 6 6 7 6 8 9 7 7
9 8 7 6 6 7 7 7 7 6 4 4 5 5 4 3 3 2 2 2 3 4 5 6 6 7 7 6 5 6 7 7 6 6 6 6 7 8 11 13 17 18 17 15
6 4 5 3 4 6 7 7 6 6 6 4 3 3 3 2 2 1 2 3 4 5 5 6 6 7 7 6 6 6 7 7 6 6 7 7 7 8 9 11 14 16 17 18
5 4 3 4 5 6 6 6 5 4 4 4 3 2 2 1 1 1 3 3 4 4 5 5 6 7 7 6 7 7 7 9 9 6 7 7 7 7 8 9 10 8 11 16
5 5 5 5 5 5 5 6 5 4 3 3 3 3 2 1 2 3 3 3 4 4 5 6 6 7 6 6 7 8 7 6 6 6 7 7 7 7 8 9 9 9 8 9
3 3 5 6 7 7 6 6 6 5 4 3 3 2 2 1 2 2 3 3 3 5 6 6 7 7 7 7 8 7 7 12 11 8 7 8 7 8 8 8 9 8 8 8
7 6 6 7 7 6 6 6 6 6 5 4 3 2 1 0 1 2 3 3 4 5 6 6 7 7 7 7 7 6 6 9 13 9 7 8 8 8 8 8 8 8 8 9
8 8 8 8 8 7 6 6 6 5 4 4 3 3 2 1 2 3 4 4 4 5 5 5 7 7 7 8 7 6 6 7 7 8 8 8 9 8 8 8 9 10 8 9
5 6 6 6 7 7 6 6 5 4 4 4 3 2 2 2 2 3 3 4 4 5 5 6 11 8 7 9 10 6 6 7 8 8 8 12 11 8 8 8 8 8 9 8
4 5 6 6 6 6 6 5 5 4 4 4 3 2 1 2 2 3 3 3 3 4 6 8 7 6 7 8 11 5 6 7 8 8 8 8 8 8 8 8 8 8 8 8
5 6 6 6 5 5 5 6 6 5 4 4 3 2 2 2 2 2 2 4 4 4 6 9 6 6 7 8 10 5 6 7 8 8 8 8 8 9 8 8 8 8 8 8
4 5 6 6 6 5 4 4 5 5 4 3 2 2 1 2 2 3 3 3 4 9 6 4 5 9 12 11 5 5 6 7 7 7 7 8 8 8 8 8 8 8 7 7
4 5 5 6 6 5 4 4 4 4 4 3 3 2 2 2 2 2 3 3 4 9 6 4 9 15 15 7 5 6 6 7 7 7 8 8 8 8 8 9 8 7 7 7
4 5 5 5 5 5 4 4 3 3 3 2 2 2 2 2 2 2 3 6 9 10 4 8 14 14 12 4 5 6 6 7 7 7 7 8 7 7 7 8 8 7 7 8
5 5 5 6 6 5 5 4 4 3 3 2 2 2 2 2 2 2 3 4 8 8 5 8 13 13 7 5 6 6 6 7 8 7 6 7 7 7 7 7 7 7 7 7
5 5 5 5 4 4 4 4 3 3 3 2 2 2 2 2 2 2 2 3 5 7 5 4 6 8 5 6 6 7 6 8 8 7 7 8 8 8 7 7 9 7 7 7
4 4 3 3 3 4 4 4 4 4 3 3 2 2 2 2 2 2 3 3 3 4 4 4 4 5 5 6 6 6 6 6 7 7 7 7 7 7 7 8 7 7 7 7
Wind_Direction
320 315 40 22 6 22 59 129 149 162 160 177 169 154 142 127 108 88 71 58 46 38 30 27 28 26 26 22 18 20 25 26 20 12 10 10 7 3 359 359 355 348 341 336
353 1 29 24 7 14 39 72 107 119 151 165 145 135 133 140 129 113 96 71 48 35 27 19 16 15 16 14 10 14 18 15 8 7 7 5 359 355 355 352 347 344 341 333
306 317 9 336 316 345 48 80 149 175 192 153 152 166 171 171 158 156 157 123 59 33 13 360 356 6 5 356 359 7 6 0 358 357 356 353 350 350 347 341 338 335 329 325
12 28 299 264 284 181 115 359 162 147 151 162 166 160 155 163 160 163 162 144 11 356 352 348 351 352 347 352 355 352 348 344 342 343 340 338 340 338 331 327 327 322 318 314
103 63 280 283 241 188 168 281 217 157 149 140 123 91 349 204 164 169 172 170 199 254 309 340 334 326 338 345 343 342 336 330 328 329 328 328 329 322 315 316 316 312 310 308
133 178 241 244 185 149 98 276 228 168 163 158 139 168 241 195 150 138 125 129 132 10 5 340 321 332 347 337 336 328 320 315 313 315 316 315 312 308 306 306 303 304 301 296
169 230 262 241 147 111 168 243 186 168 169 167 183 203 189 150 146 146 143 145 85 33 341 314 320 340 333 324 313 305 308 310 313 313 309 304 304 303 305 305 306 303 297 293
171 213 257 190 145 185 214 183 150 160 167 167 171 146 144 153 158 160 158 299 0 339 315 312 323 331 317 305 298 303 307 308 307 306 306 309 303 301 300 301 303 302 300 300
197 219 246 197 202 210 167 162 171 164 165 155 156 170 174 179 185 202 223 255 274 284 301 307 310 307 298 294 299 302 301 298 296 298 296 295 295 299 301 297 294 295 294 295
260 262 246 230 222 198 178 177 171 160 157 158 167 177 184 188 201 217 233 249 265 290 299 300 302 300 286 292 300 302 301 300 298 298 297 295 289 287 289 289 289 290 290 291
256 268 274 251 217 200 176 153 145 147 159 166 165 178 186 196 211 223 242 262 271 279 285 290 297 296 295 297 301 300 298 296 296 293 291 293 289 281 284 272 275 287 284 282
226 218 198 226 207 180 170 176 171 160 158 163 170 180 184 199 212 223 249 271 285 286 287 291 296 298 299 300 298 296 297 297 296 294 292 291 292 295 289 288 293 292 290 288
219 197 192 211 171 170 173 177 170 167 166 165 169 170 169 185 205 227 266 282 284 287 291 296 301 300 301 303 302 295 292 295 294 293 292 293 293 294 298 299 293 291 291 292
199 150 164 188 185 173 161 155 147 143 150 152 152 143 141 157 210 260 276 283 291 297 299 301 303 301 304 308 307 300 295 296 297 289 289 290 288 287 289 294 299 294 292 293
211 195 186 168 147 144 140 137 139 149 149 142 136 140 152 183 244 271 287 301 310 309 306 306 305 304 312 314 311 305 300 296 292 290 289 289 289 288 287 287 288 290 292 292
178 139 142 149 159 158 153 158 164 173 167 163 164 177 191 211 257 286 301 312 312 308 309 308 306 308 314 316 313 307 301 305 309 302 297 295 292 290 290 289 289 289 289 291
161 176 178 179 179 177 176 174 173 172 168 172 183 180 166 203 299 302 305 309 300 295 299 305 308 311 316 315 309 303 301 305 310 308 299 298 296 293 291 291 290 290 288 288
198 194 182 177 175 172 171 165 162 162 170 174 156 144 154 216 272 291 303 311 310 306 304 309 309 316 317 315 311 304 303 303 306 305 304 302 299 296 296 295 294 293 293 294
176 169 166 165 163 158 160 162 162 157 151 145 146 161 194 238 265 284 301 308 308 307 307 311 322 328 315 311 317 303 305 307 309 307 306 307 310 304 301 299 297 296 296 295
138 140 139 140 140 144 150 150 145 142 146 145 146 155 205 258 274 289 296 287 273 276 293 309 320 314 308 304 314 307 309 309 310 310 310 308 307 307 305 303 304 302 300 301
144 141 139 138 136 136 144 147 147 150 151 151 162 188 228 262 273 276 286 294 295 301 307 320 322 307 304 313 323 317 310 308 309 308 308 308 309 309 309 308 309 310 310 309
153 149 148 144 140 139 142 142 145 148 149 158 175 194 229 266 279 280 265 264 291 315 320 306 303 311 321 331 325 314 311 310 310 309 308 307 307 307 308 310 309 308 309 308
159 157 155 155 152 146 139 145 154 156 164 175 186 204 227 250 258 273 293 292 298 314 321 301 313 322 330 337 319 313 312 312 310 309 309 307 307 308 309 309 307 308 308 310
159 158 155 146 137 142 159 175 167 164 169 175 192 209 224 252 264 245 259 304 316 319 315 314 324 328 336 330 311 309 309 310 308 306 308 310 310 308 307 308 308 308 307 307
161 156 154 154 163 177 176 164 157 164 170 184 213 233 238 231 242 267 278 288 309 321 316 319 325 331 331 309 307 307 306 305 307 312 313 311 309 308 305 305 306 306 306 305
168 172 178 182 178 169 164 163 171 178 180 196 221 228 235 245 256 270 278 286 296 316 314 303 307 317 312 307 306 307 307 309 314 313 308 307 307 307 307 309 308 305 304 304
163 162 160 165 176 173 169 171 178 187 189 196 216 220 230 250 265 278 287 292 298 301 300 302 304 306 306 307 307 308 308 308 309 308 307 305 305 306 307 308 307 305 304 304